Location: ???? ???
(30.5005°N, 60.5936°E)
Time: 13:37:13
(UTC+00:00)

Lacrosse 5 rocket - Pass Details

Date: 07 June 2020
Orbit: 461 x 635 km, 57.0° (Epoch: 06 July)

Event Time Altitude Azimuth Distance (km) Brightness Sun altitude
Exits shadow 00:06:25 11° 260° (W) 1,738 3.3 -9.8°
Maximum altitude 00:09:32 24° 313° (NW) 1,125 2.8 -9.3°
Drops below altitude 10° 00:12:44 10° 9° (N) 1,731 4.5 -8.7°
Sets 00:15:11 0° 23° (NNE) 2,587 5.8 -8.2°
